Location: Alsip
(41.6689°N, 87.7387°W)
Time: 14:14:53
(UTC+00:00)

Cosmos 1455 - Pass Details

Date: 14 July 2020
Orbit: 500 x 521 km, 82.5° (Epoch: 04 August)

Event Time Altitude Azimuth Distance (km) Brightness Sun altitude
Rises 01:50:35 0° 348° (NNW) 2,653 6.6 -4.9°
Reaches altitude 10° 01:52:45 10° 345° (NNW) 1,762 5.7 -5.2°
Maximum altitude 01:56:34 61° 265° (W) 595 2.8 -5.8°
Drops below altitude 10° 02:00:22 10° 185° (S) 1,751 4.6 -6.4°
Sets 02:02:30 0° 182° (S) 2,634 5.4 -6.7°
